Lid_Strength_Index
-0 -0 -0 -0 -0 -0 -0 -0 -0 -1 -1 -1 -1 -1 -1 -1 -0 2 5 3 2 -1 0 5 6 7 7 8 8 10 14 15 15 13 12 10 11 10 10 10 10 9 10 9 7
-0 -0 -0 -0 0 0 -0 -0 -0 -0 -1 -1 -1 -1 -1 -1 3 5 0 -1 -1 -1 5 7 8 8 9 9 9 11 14 13 12 12 12 10 10 10 11 11 11 11 9 8 8
-0 -0 -0 0 0 0 0 0 -0 -0 -0 -0 -1 -1 -1 1 5 6 -1 -2 -1 0 4 6 6 8 10 10 10 12 13 12 11 10 10 10 11 10 11 12 11 10 10 9 9
-0 -0 -0 0 0 0 0 0 0 -0 -0 -0 -1 -1 -0 3 11 5 -1 -1 -1 3 5 7 8 10 11 11 9 13 10 11 9 9 10 10 10 11 11 11 9 9 9 10 10
-0 -0 0 0 1 0 0 0 0 0 -0 -0 -1 -0 3 8 7 3 -0 0 3 5 7 8 9 9 11 11 10 12 11 10 9 9 10 9 10 11 11 11 10 9 9 10 10
0 0 0 1 1 0 0 0 0 0 0 -0 -1 -0 5 11 3 3 3 4 5 6 8 8 9 9 10 11 11 10 10 10 9 9 9 10 11 11 11 11 11 10 11 11 10
0 1 0 0 0 0 0 0 0 0 0 -0 -1 2 6 8 3 4 5 6 6 6 7 7 7 9 9 11 10 10 12 11 10 10 10 10 12 11 11 11 11 11 12 11 11
0 0 1 0 0 0 0 0 0 0 -0 -0 -1 4 9 4 4 5 5 6 6 6 6 6 6 7 9 9 10 12 13 14 12 11 11 11 14 11 11 12 12 12 13 12 12
2 1 0 0 0 0 0 0 0 0 -0 -1 4 6 9 3 4 3 5 6 6 6 7 5 7 10 10 12 14 14 16 15 13 11 11 12 13 12 12 12 13 13 13 12 12
2 2 2 0 0 0 0 -0 0 1 1 1 3 9 7 8 5 4 5 5 7 8 8 9 10 12 13 13 17 16 16 15 14 12 13 14 13 12 12 12 12 13 13 13 12
0 1 2 2 1 -0 1 3 5 6 5 9 8 10 8 7 5 6 5 6 7 9 12 11 13 14 12 12 13 14 15 15 13 11 13 14 13 12 12 13 13 13 13 13 12
1 1 1 2 1 1 2 5 5 5 9 5 5 6 7 6 9 7 6 9 10 12 11 12 14 11 11 11 12 13 14 14 13 12 13 14 14 13 12 12 12 12 12 12 14
1 1 1 1 1 2 4 5 2 4 9 8 5 6 6 7 8 8 7 9 10 12 12 13 11 10 11 12 13 13 14 15 14 13 14 15 15 14 12 12 12 11 11 12 13
1 1 1 1 3 2 4 2 3 4 13 11 8 7 8 7 9 6 6 8 11 12 11 12 10 11 12 12 11 14 12 13 13 15 17 15 18 16 14 13 13 12 12 12 14
3 2 1 1 3 4 3 2 2 4 19 9 9 5 7 9 10 9 7 9 12 11 11 13 12 12 13 12 11 13 12 13 14 16 17 18 19 17 15 15 13 11 12 13 14
2 3 2 2 2 2 2 2 3 13 19 12 9 10 10 9 10 10 9 9 9 11 11 12 11 11 11 12 11 12 13 14 16 16 20 17 18 17 16 14 13 11 12 13 14
1 3 4 1 4 2 2 4 13 18 10 13 12 11 11 11 12 12 12 12 13 14 15 13 13 13 12 13 13 13 15 19 20 21 20 17 19 15 14 13 13 11 13 14 14
1 1 3 3 1 1 3 10 17 13 13 11 11 12 13 12 13 13 14 14 12 14 15 15 17 13 12 13 14 14 15 19 23 22 20 18 20 16 13 13 12 13 13 15 15
1 3 2 2 1 1 7 15 15 13 11 11 10 13 14 12 13 14 15 15 13 13 15 17 16 14 13 13 11 15 16 13 17 24 23 18 17 14 14 14 14 13 15 16 15
5 5 4 0 0 3 10 13 12 9 9 9 14 12 15 13 13 14 15 13 13 12 12 13 17 15 14 13 14 15 14 18 18 24 24 20 19 17 15 15 13 14 15 16 16
5 7 4 -0 1 6 13 12 10 9 8 10 12 12 13 13 12 14 14 13 12 12 11 12 14 17 15 16 16 16 16 16 16 19 22 23 18 15 13 13 13 13 14 15 15
6 10 3 0 9 8 11 10 8 9 7 8 9 10 12 12 12 14 14 12 11 11 14 12 13 19 17 15 15 15 15 15 18 20 18 19 16 15 14 13 12 12 14 15 15
8 8 2 2 12 11 9 9 8 9 9 9 10 9 9 11 13 11 13 10 10 11 13 12 14 18 18 16 15 16 14 13 14 17 17 20 17 15 15 13 14 14 15 15 15
8 11 8 5 6 9 10 10 11 8 8 8 9 9 10 12 10 12 12 10 10 10 9 9 13 15 17 16 15 17 16 15 13 17 17 16 14 14 15 14 14 15 15 15 15
7 10 7 11 10 9 9 10 11 11 8 8 10 10 11 13 12 13 11 10 10 9 10 10 15 13 13 14 15 16 15 14 15 14 15 14 14 12 11 13 12 13 15 15 16
8 10 9 9 8 9 9 11 11 10 10 11 11 10 10 12 11 13 11 11 11 11 11 10 15 13 15 13 14 14 14 15 14 13 13 13 13 12 11 12 13 13 14 15 15
4 5 7 9 10 10 10 10 10 9 8 8 9 10 11 10 8 8 8 8 9 10 11 12 13 15 17 14 14 17 14 13 13 13 13 15 12 10 13 12 12 12 13 14 14